Location: Newark
(46.7000°N, 60.6000°W)
Time: 03:56:34
(UTC+00:00)

A-11 Canister half - Pass Details

Date: 03 November 2020
Orbit: 1525 x 1683 km, 47.3° (Epoch: 23 November)

Event Time Altitude Azimuth Distance (km) Brightness Sun altitude
Rises 13:59:30 0° 169° (S) 4,853 12.9 23.5°
Reaches altitude 10° 14:05:34 10° 142° (SE) 3,833 12.9 24.0°
Maximum altitude 14:08:40 12° 123° (ESE) 3,664 12.1 24.2°
Drops below altitude 10° 14:11:43 10° 103° (ESE) 3,797 11.7 24.5°
Sets 14:17:35 0° 76° (ENE) 4,749 11.7 24.9°
